When you browse on this site, cookies collect data to enhance your experience and personalize the content and advertising you see.
Visit our Privacy Policy to learn more. By continuing to use the site, you agree to this use of cookies and data.
  • In Portugal
  • List of Countries
  • For 7 days
  • Water Temperature
  • Satellite Maps
  • Weather Map
  • Weather Widgets
  • user-avatar
    Login

    Hourly Weather Kolce

    Today, 21 March, Thursday

    Time Temperature Precipitation Wind Pressure Humidity
    00:00 +2°C° 0 mm 1 mps 725 mmHg 70%
    01:00 +2°C° 0 mm 2 mps 725 mmHg 69%
    02:00 +2°C° 0 mm 2 mps 725 mmHg 69%
    03:00 +1°C° 0 mm 2 mps 725 mmHg 70%
    04:00 +1°C° 0 mm 2 mps 725 mmHg 70%
    05:00 +2°C° 0 mm 2 mps 725 mmHg 71%
    06:00 +2°C° 0 mm 2 mps 725 mmHg 71%
    07:00 +2°C° 0 mm 2 mps 726 mmHg 70%
    08:00 +4°C° 0 mm 2 mps 726 mmHg 68%
    09:00 +6°C° 0 mm 2 mps 726 mmHg 66%
    10:00 +8°C° 0 mm 2 mps 726 mmHg 63%
    11:00 +9°C° 0 mm 2 mps 726 mmHg 62%
    12:00 +10°C° 0 mm 2 mps 726 mmHg 61%
    13:00 +12°C° 0 mm 2 mps 726 mmHg 60%
    14:00 +12°C° 0 mm 2 mps 726 mmHg 60%
    15:00 +12°C° 0 mm 2 mps 726 mmHg 61%
    16:00 +12°C° 0 mm 2 mps 725 mmHg 61%
    17:00 +11°C° 0 mm 1 mps 725 mmHg 67%
    18:00 +10°C° 0 mm 1 mps 725 mmHg 73%
    19:00 +8°C° 0 mm 1 mps 725 mmHg 79%
    20:00 +8°C° 0 mm 1 mps 725 mmHg 81%
    21:00 +7°C° 0 mm 1 mps 725 mmHg 83%
    22:00 +7°C° 0 mm 1 mps 725 mmHg 85%
    23:00 +7°C° 0 mm 1 mps 725 mmHg 86%

    Tomorrow, 22 March, Friday

    Time Temperature Precipitation Wind Pressure Humidity
    00:00 +6°C° 0 mm 1 mps 725 mmHg 87%
    01:00 +6°C° 0 mm 1 mps 725 mmHg 87%
    02:00 +6°C° 0 mm 1 mps 725 mmHg 88%
    03:00 +6°C° 0 mm 1 mps 725 mmHg 88%
    04:00 +6°C° 0 mm 1 mps 724 mmHg 88%
    05:00 +6°C° 0 mm 1 mps 725 mmHg 88%
    06:00 +6°C° 0 mm 1 mps 725 mmHg 87%
    07:00 +6°C° 0 mm 0 mps 725 mmHg 87%
    08:00 +9°C° 0 mm 1 mps 725 mmHg 81%
    09:00 +10°C° 0 mm 1 mps 726 mmHg 76%
    10:00 +12°C° 0 mm 1 mps 726 mmHg 70%
    11:00 +13°C° 0 mm 1 mps 726 mmHg 69%
    12:00 +13°C° 0 mm 2 mps 726 mmHg 67%
    13:00 +14°C° 0 mm 2 mps 726 mmHg 66%
    14:00 +14°C° 0 mm 2 mps 725 mmHg 67%
    15:00 +14°C° 0 mm 2 mps 725 mmHg 69%
    16:00 +13°C° 0 mm 2 mps 724 mmHg 70%
    17:00 +12°C° 0 mm 2 mps 724 mmHg 76%
    18:00 +11°C° 0 mm 1 mps 724 mmHg 82%
    19:00 +9°C° 0 mm 1 mps 723 mmHg 88%
    20:00 +9°C° 0 mm 1 mps 723 mmHg 89%
    21:00 +8°C° 0 mm 1 mps 723 mmHg 90%
    22:00 +8°C° 0 mm 1 mps 723 mmHg 91%
    23:00 +8°C° 0 mm 1 mps 723 mmHg 92%

    Day after tomorrow, 23 March, Saturday

    Time Temperature Precipitation Wind Pressure Humidity
    00:00 +7°C° 0 mm 1 mps 723 mmHg 92%
    01:00 +7°C° 0 mm 1 mps 722 mmHg 92%
    02:00 +7°C° 0 mm 1 mps 722 mmHg 92%
    03:00 +7°C° 0 mm 1 mps 722 mmHg 91%
    04:00 +7°C° 0 mm 1 mps 721 mmHg 91%
    05:00 +7°C° 0 mm 1 mps 721 mmHg 90%
    06:00 +6°C° 0 mm 2 mps 721 mmHg 89%
    07:00 +7°C° 0 mm 2 mps 721 mmHg 88%
    08:00 +9°C° 0 mm 2 mps 721 mmHg 79%
    09:00 +12°C° 0 mm 2 mps 722 mmHg 70%
    10:00 +14°C° 0 mm 2 mps 722 mmHg 61%
    11:00 +15°C° 0 mm 2 mps 722 mmHg 57%
    12:00 +16°C° 0 mm 2 mps 721 mmHg 53%
    13:00 +17°C° 0 mm 2 mps 721 mmHg 49%
    14:00 +17°C° 0 mm 2 mps 721 mmHg 49%
    15:00 +17°C° 0 mm 2 mps 720 mmHg 49%
    16:00 +17°C° 0 mm 2 mps 720 mmHg 50%
    17:00 +15°C° 0 mm 2 mps 720 mmHg 56%
    18:00 +14°C° 0 mm 2 mps 720 mmHg 63%
    19:00 +12°C° 0 mm 1 mps 720 mmHg 69%
    20:00 +12°C° 0 mm 2 mps 720 mmHg 73%
    21:00 +10°C° 0 mm 2 mps 720 mmHg 77%
    22:00 +10°C° 0 mm 2 mps 721 mmHg 80%
    23:00 +9°C° 0 mm 3 mps 721 mmHg 84%

    24 March, Sunday

    Time Temperature Precipitation Wind Pressure Humidity
    00:00 +8°C° 0 mm 3 mps 721 mmHg 87%
    01:00 +7°C° 0 mm 4 mps 721 mmHg 91%
    02:00 +6°C° 0 mm 4 mps 721 mmHg 88%
    03:00 +5°C° 0 mm 4 mps 721 mmHg 86%
    04:00 +4°C° 0 mm 3 mps 721 mmHg 84%
    05:00 +3°C° 0 mm 3 mps 721 mmHg 80%
    06:00 +3°C° 0 mm 3 mps 721 mmHg 76%
    07:00 +2°C° 0 mm 3 mps 721 mmHg 72%
    08:00 +4°C° 0 mm 2 mps 721 mmHg 68%
    09:00 +4°C° 0 mm 2 mps 721 mmHg 63%
    10:00 +5°C° 0 mm 2 mps 721 mmHg 59%
    11:00 +6°C° 0 mm 2 mps 721 mmHg 56%
    12:00 +7°C° 0 mm 2 mps 721 mmHg 53%
    13:00 +8°C° 0 mm 2 mps 721 mmHg 50%
    14:00 +8°C° 0 mm 3 mps 721 mmHg 50%
    15:00 +8°C° 0 mm 3 mps 720 mmHg 49%
    16:00 +8°C° 0 mm 3 mps 720 mmHg 48%
    17:00 +7°C° 0 mm 3 mps 720 mmHg 51%
    18:00 +6°C° 0 mm 2 mps 720 mmHg 54%
    19:00 +4°C° 0 mm 2 mps 720 mmHg 57%
    20:00 +4°C° 0 mm 2 mps 720 mmHg 60%
    21:00 +3°C° 0 mm 2 mps 720 mmHg 63%
    22:00 +3°C° 0 mm 1 mps 720 mmHg 67%
    23:00 +3°C° 0 mm 1 mps 720 mmHg 68%

    25 March, Monday

    Time Temperature Precipitation Wind Pressure Humidity
    00:00 +2°C° 0 mm 1 mps 720 mmHg 70%
    01:00 +2°C° 0 mm 1 mps 720 mmHg 72%
    02:00 +1°C° 0 mm 1 mps 720 mmHg 73%
    03:00 +1°C° 0 mm 1 mps 719 mmHg 73%
    04:00 +1°C° 0 mm 1 mps 719 mmHg 74%
    05:00 -1°C° 0 mm 2 mps 719 mmHg 72%
    06:00 +1°C° 0 mm 2 mps 720 mmHg 70%
    07:00 +1°C° 0 mm 2 mps 720 mmHg 69%
    08:00 +2°C° 0 mm 3 mps 720 mmHg 62%
    09:00 +3°C° 0 mm 4 mps 720 mmHg 55%
    10:00 +3°C° 0 mm 6 mps 720 mmHg 48%
    11:00 +3°C° 0 mm 6 mps 719 mmHg 51%
    12:00 +4°C° 0 mm 7 mps 719 mmHg 54%
    13:00 +4°C° 0 mm 7 mps 718 mmHg 57%
    14:00 +4°C° 0.1 mm 7 mps 718 mmHg 58%
    15:00 +3°C° 0.1 mm 7 mps 718 mmHg 59%
    16:00 +3°C° 0.1 mm 7 mps 717 mmHg 59%
    17:00 +3°C° 0.1 mm 6 mps 717 mmHg 64%
    18:00 +2°C° 0.1 mm 5 mps 717 mmHg 69%
    19:00 +2°C° 0.1 mm 5 mps 717 mmHg 74%
    20:00 +1°C° 0.1 mm 5 mps 717 mmHg 75%
    21:00 0°C° 0.1 mm 5 mps 717 mmHg 75%
    22:00 -1°C° 0.1 mm 5 mps 716 mmHg 76%
    23:00 0°C° 0.2 mm 5 mps 716 mmHg 77%

    26 March, Tuesday

    Time Temperature Precipitation Wind Pressure Humidity
    00:00 0°C° 0.2 mm 5 mps 716 mmHg 78%
    01:00 -1°C° 0.2 mm 6 mps 716 mmHg 79%
    02:00 -1°C° 0 mm 5 mps 716 mmHg 79%
    03:00 -1°C° 0 mm 5 mps 715 mmHg 80%
    04:00 -2°C° 0 mm 5 mps 715 mmHg 80%
    05:00 -2°C° 0 mm 5 mps 715 mmHg 78%
    06:00 -3°C° 0 mm 6 mps 715 mmHg 76%
    07:00 -3°C° 0 mm 7 mps 715 mmHg 74%
    08:00 -2°C° 0.1 mm 7 mps 716 mmHg 70%
    09:00 -2°C° 0.1 mm 8 mps 716 mmHg 65%
    10:00 -1°C° 0.1 mm 9 mps 716 mmHg 60%
    11:00 0°C° 0.1 mm 8 mps 717 mmHg 54%
    12:00 0°C° 0.1 mm 8 mps 717 mmHg 49%
    13:00 +1°C° 0.1 mm 8 mps 717 mmHg 44%
    14:00 +1°C° 0 mm 8 mps 717 mmHg 43%
    15:00 +1°C° 0 mm 8 mps 717 mmHg 43%
    16:00 +1°C° 0 mm 8 mps 718 mmHg 43%
    17:00 +1°C° 0 mm 6 mps 718 mmHg 50%
    18:00 0°C° 0 mm 5 mps 718 mmHg 57%
    19:00 -1°C° 0 mm 4 mps 719 mmHg 65%
    20:00 -1°C° 0 mm 3 mps 719 mmHg 67%
    21:00 -1°C° 0 mm 3 mps 720 mmHg 69%
    22:00 -2°C° 0 mm 3 mps 720 mmHg 71%
    23:00 -4°C° 0 mm 3 mps 720 mmHg 73%
    Show more